Total_Precipitation_Accumulation
0.00 0.00 0.00 0.00 0.00 0.00 0.00 0.00 0.00 0.00 0.00 0.00 0.00 0.01 0.02 0.05 0.09 0.14 0.27 0.53 0.81 0.96 1.26 1.51 1.56 1.67 1.73 2.00 2.22 2.41 2.84 2.97 2.90 2.70 2.39 2.20 2.08 2.00 1.86 1.72 1.62 1.59 1.55 1.58
0.00 0.00 0.00 0.00 0.00 0.00 0.00 0.00 0.00 0.00 0.00 0.00 0.00 0.01 0.02 0.04 0.07 0.11 0.22 0.40 0.64 0.96 1.21 1.40 1.46 1.44 1.68 2.14 2.41 2.44 2.38 2.52 2.58 2.50 2.40 2.35 2.37 2.12 1.88 1.76 1.60 1.50 1.53 1.56
0.00 0.00 0.00 0.00 0.00 0.00 0.00 0.00 0.00 0.00 0.00 0.00 0.00 0.02 0.03 0.06 0.11 0.23 0.39 0.56 0.71 1.01 1.26 1.35 1.38 1.34 1.42 1.57 1.75 1.86 1.89 1.81 1.79 1.85 1.99 2.05 2.09 1.89 1.72 1.63 1.59 1.50 1.46 1.38
0.00 0.00 0.00 0.00 0.00 0.00 0.00 0.00 0.00 0.00 0.00 0.00 0.01 0.03 0.04 0.06 0.19 0.40 0.54 0.70 0.92 1.15 1.12 1.16 1.22 1.18 1.22 1.32 1.41 1.43 1.45 1.44 1.46 1.57 1.67 1.67 1.67 1.57 1.54 1.55 1.46 1.41 1.36 1.30
0.01 0.01 0.00 0.00 0.00 0.00 0.00 0.00 0.00 0.00 0.00 0.01 0.02 0.03 0.05 0.09 0.22 0.45 0.61 0.67 0.86 0.95 0.87 0.84 0.89 0.91 0.94 0.97 1.08 1.17 1.25 1.25 1.25 1.28 1.33 1.37 1.35 1.36 1.39 1.32 1.26 1.19 1.16 1.21
0.01 0.02 0.01 0.01 0.01 0.01 0.01 0.00 0.00 0.01 0.02 0.04 0.07 0.08 0.12 0.22 0.32 0.41 0.58 0.66 0.78 0.80 0.78 0.84 0.82 0.78 0.81 0.88 0.98 1.05 1.10 1.12 1.12 1.13 1.15 1.16 1.16 1.17 1.17 1.13 1.13 1.10 1.05 0.99
0.04 0.04 0.03 0.02 0.01 0.01 0.01 0.02 0.07 0.09 0.13 0.16 0.16 0.14 0.24 0.38 0.42 0.47 0.58 0.73 0.80 0.74 0.69 0.68 0.68 0.70 0.75 0.77 0.77 0.79 0.81 0.86 0.82 0.81 0.86 0.87 0.88 0.87 0.89 0.89 0.86 0.81 0.73 0.71
0.05 0.08 0.07 0.04 0.03 0.03 0.04 0.07 0.23 0.22 0.10 0.10 0.14 0.20 0.42 0.57 0.57 0.57 0.64 0.72 0.67 0.58 0.54 0.53 0.53 0.53 0.56 0.54 0.52 0.55 0.59 0.66 0.69 0.68 0.68 0.60 0.56 0.55 0.55 0.63 0.64 0.60 0.56 0.55
0.03 0.03 0.03 0.03 0.03 0.05 0.09 0.12 0.14 0.28 0.21 0.16 0.14 0.26 0.45 0.62 0.67 0.73 0.83 0.83 0.71 0.57 0.45 0.41 0.40 0.38 0.36 0.36 0.39 0.46 0.51 0.55 0.60 0.59 0.55 0.50 0.45 0.42 0.42 0.46 0.52 0.53 0.58 0.53
0.02 0.01 0.01 0.02 0.02 0.05 0.08 0.09 0.11 0.24 0.28 0.26 0.15 0.32 0.55 0.83 0.88 0.82 0.88 0.77 0.57 0.43 0.33 0.29 0.25 0.24 0.24 0.25 0.30 0.38 0.42 0.41 0.43 0.44 0.43 0.37 0.36 0.36 0.38 0.40 0.41 0.44 0.46 0.49
0.01 0.00 0.00 0.02 0.03 0.05 0.09 0.13 0.20 0.29 0.29 0.35 0.33 0.40 0.50 0.63 0.76 0.83 0.78 0.60 0.40 0.28 0.21 0.19 0.19 0.20 0.21 0.21 0.25 0.32 0.39 0.42 0.43 0.42 0.41 0.35 0.30 0.29 0.30 0.31 0.32 0.38 0.39 0.42
0.00 0.00 0.00 0.01 0.04 0.06 0.07 0.11 0.20 0.32 0.29 0.30 0.36 0.39 0.27 0.30 0.39 0.44 0.42 0.34 0.27 0.21 0.19 0.21 0.23 0.23 0.21 0.23 0.27 0.34 0.39 0.44 0.48 0.49 0.50 0.46 0.40 0.36 0.34 0.31 0.30 0.30 0.33 0.36
0.00 0.00 0.01 0.03 0.08 0.10 0.09 0.09 0.11 0.15 0.17 0.17 0.25 0.29 0.21 0.24 0.32 0.41 0.49 0.49 0.41 0.32 0.23 0.19 0.21 0.23 0.24 0.28 0.33 0.43 0.48 0.50 0.52 0.58 0.65 0.64 0.51 0.46 0.45 0.39 0.32 0.30 0.29 0.29
0.00 0.00 0.01 0.03 0.04 0.05 0.08 0.09 0.07 0.12 0.20 0.18 0.16 0.20 0.22 0.25 0.32 0.40 0.44 0.40 0.32 0.25 0.20 0.17 0.20 0.23 0.26 0.29 0.29 0.32 0.36 0.38 0.44 0.46 0.55 0.65 0.61 0.49 0.37 0.29 0.30 0.31 0.30 0.30
0.00 0.00 0.00 0.01 0.02 0.04 0.08 0.08 0.06 0.08 0.14 0.25 0.19 0.16 0.19 0.20 0.20 0.24 0.25 0.21 0.17 0.16 0.14 0.15 0.18 0.21 0.25 0.25 0.22 0.19 0.17 0.17 0.23 0.27 0.34 0.44 0.39 0.32 0.29 0.26 0.20 0.17 0.21 0.26
0.00 0.00 0.00 0.01 0.02 0.03 0.06 0.09 0.07 0.05 0.05 0.09 0.12 0.17 0.18 0.18 0.19 0.20 0.19 0.17 0.16 0.16 0.13 0.12 0.14 0.17 0.19 0.16 0.11 0.08 0.08 0.11 0.18 0.24 0.28 0.35 0.34 0.27 0.21 0.17 0.12 0.11 0.16 0.22
0.01 0.01 0.00 0.00 0.01 0.03 0.09 0.09 0.05 0.03 0.02 0.04 0.13 0.21 0.19 0.20 0.19 0.18 0.16 0.14 0.12 0.10 0.08 0.07 0.06 0.06 0.05 0.05 0.04 0.05 0.05 0.06 0.14 0.24 0.31 0.36 0.40 0.40 0.28 0.15 0.12 0.14 0.19 0.25
0.02 0.01 0.00 0.00 0.02 0.12 0.10 0.03 0.02 0.02 0.02 0.03 0.06 0.09 0.10 0.09 0.07 0.06 0.06 0.05 0.03 0.03 0.03 0.03 0.02 0.02 0.02 0.02 0.04 0.07 0.06 0.07 0.12 0.22 0.29 0.32 0.36 0.37 0.33 0.26 0.23 0.25 0.29 0.35
0.03 0.01 0.01 0.01 0.02 0.08 0.04 0.02 0.02 0.04 0.04 0.03 0.03 0.04 0.04 0.04 0.04 0.06 0.03 0.02 0.01 0.01 0.01 0.01 0.02 0.01 0.02 0.02 0.05 0.11 0.12 0.14 0.19 0.28 0.37 0.37 0.39 0.39 0.33 0.30 0.32 0.34 0.38 0.39
0.01 0.01 0.01 0.01 0.02 0.07 0.05 0.04 0.06 0.04 0.11 0.08 0.05 0.04 0.03 0.02 0.08 0.10 0.04 0.01 0.01 0.01 0.01 0.02 0.02 0.02 0.04 0.06 0.10 0.15 0.21 0.26 0.33 0.42 0.48 0.46 0.50 0.51 0.46 0.46 0.46 0.44 0.46 0.41
0.01 0.01 0.01 0.01 0.03 0.04 0.02 0.04 0.04 0.08 0.15 0.04 0.02 0.01 0.01 0.02 0.05 0.05 0.02 0.01 0.01 0.01 0.02 0.03 0.04 0.04 0.06 0.09 0.13 0.22 0.27 0.31 0.35 0.38 0.45 0.52 0.57 0.63 0.67 0.69 0.65 0.59 0.55 0.51
0.01 0.01 0.02 0.03 0.07 0.09 0.02 0.01 0.01 0.04 0.02 0.01 0.01 0.01 0.02 0.02 0.01 0.01 0.01 0.01 0.01 0.02 0.03 0.04 0.06 0.05 0.07 0.10 0.16 0.24 0.27 0.30 0.34 0.39 0.47 0.54 0.58 0.59 0.68 0.90 0.88 0.86 0.80 0.69
0.00 0.01 0.02 0.02 0.04 0.02 0.00 0.00 0.01 0.01 0.01 0.02 0.02 0.01 0.02 0.02 0.02 0.02 0.02 0.02 0.02 0.02 0.03 0.05 0.09 0.11 0.13 0.17 0.28 0.39 0.36 0.37 0.42 0.48 0.54 0.58 0.59 0.64 0.77 0.88 0.92 0.93 0.87 0.76
0.00 0.01 0.01 0.03 0.01 0.00 0.01 0.01 0.01 0.01 0.01 0.01 0.01 0.01 0.02 0.03 0.03 0.03 0.03 0.03 0.04 0.04 0.06 0.09 0.14 0.20 0.28 0.33 0.40 0.49 0.46 0.47 0.52 0.54 0.57 0.60 0.64 0.65 0.71 0.86 0.87 0.85 0.81 0.79
0.00 0.00 0.01 0.03 0.02 0.01 0.01 0.02 0.01 0.00 0.01 0.01 0.01 0.02 0.02 0.03 0.04 0.04 0.04 0.05 0.05 0.06 0.07 0.13 0.21 0.30 0.38 0.46 0.52 0.56 0.59 0.65 0.68 0.63 0.60 0.63 0.67 0.70 0.76 0.82 0.88 0.86 0.80 0.72
0.01 0.02 0.03 0.04 0.04 0.05 0.05 0.03 0.01 0.01 0.01 0.01 0.02 0.02 0.03 0.04 0.05 0.04 0.05 0.05 0.05 0.07 0.08 0.13 0.20 0.30 0.39 0.48 0.55 0.60 0.70 0.82 0.89 0.88 0.77 0.76 0.78 0.80 0.85 0.85 0.76 0.65 0.60 0.49